Location: Andrea Ville Subdivision
(14.3485°N, 120.9580°E)
Time: 01:57:38
(UTC+00:00)

Cosmos 1470 Rocket - Pass Details

Date: 13 January 2026
Orbit: 598 x 626 km, 82.5° (Epoch: 15 February)

Event Time Altitude Azimuth Distance (km) Brightness Sun altitude
Rises 09:58:08 0° 8° (N) 2,847 6.7 -3.7°
Reaches altitude 10° 10:00:28 10° 16° (NNE) 1,948 5.8 -4.2°
Maximum altitude 10:04:28 37° 84° (E) 940 4.1 -5.1°
Drops below altitude 10° 10:08:30 10° 153° (SSE) 1,963 6.1 -6.0°
Sets 10:10:50 0° 161° (SSE) 2,871 7.0 -6.6°
